Voltar ao catálogo

SUPERVIEW NEO-2 06

AtivoCiênciaSSO
NORAD 68378·PAYLOAD·🇨🇳 China

Lançado Mar 25, 2026 de Taiyuan Satellite Launch Center

Loading…

Próximas Passagens (próximas 24 horas)

TLE

AtualizadoSource: Space-Track

Época: Sep 14, 2026, 12:00 UTC

1 68378U 26062B   26257.50018860  .00000776  00000-0  39502-4 0  9991
2 68378  97.4391 263.5431 0001401 110.8243 249.3142 15.19722353 26210

Acompanhe SUPERVIEW NEO-2 06 em tempo real com AllMySat

Download on the App Store